sat.trackr.live / text

‹ back to catalog

STARLINK-32121

NORAD 60264 · 2024-131K

PAYLOAD ACTIVE UNKNOWN

§ Identity

Operator
Country
US
Launch date
2024-07-27
Launch site
AFETR
Launch vehicle
Mass (kg)
RCS (m²)

Purposes: comms

External: N2YO · Heavens-Above · Gunter

§ Orbital elements

Epoch: 2026-09-21T07:24:20.399616Z

Period
94.01 min
Inclination
53.1595°
Eccentricity
0.0001342
Mean motion
15.31706463 rev/d
Perigee alt
469.8 km
Apogee alt
471.6 km
Semi-major
6,848.9 km
B*
2.6116e-5
RAAN
222.7466°
Arg perigee
89.3621°
Mean anomaly
270.7534°
Rev number
12,173

§ Raw data

STARLINK-321211 60264U 24131K   26264.30856944  .00000445  00000+0  26116-4 0  99902 60264  53.1595 222.7466 0001342  89.3621 270.7534 15.31706463121734

JSON: /api/v1/satellites/60264 · /tle

For live sub-satellite position, see the globe view (requires WebGL).

§ Visibility from observer

Set your observer location to see the next 7 days of passes ≥ 10°. The values pass through the URL so the page stays shareable.

No JS? Fill the form by hand. The geolocation button needs JavaScript.